| time (UTC) | temp C | wind direction | speed KPH | gust KPH | rain 1hr cm | rain 24hr cm | rain mn cm | humidity % | barometer mb |
| 20260510045005 | 23 | 162 | 0.0 | 3.2 | 0.00 | 0.00 | 0.00 | 77 | 1011.8 |
| 20260510044520 | 23 | 175 | 0.0 | 3.2 | 0.00 | 0.00 | 0.00 | 78 | 1011.9 |
| 20260510044004 | 23 | 117 | 0.0 | 3.2 | 0.00 | 0.00 | 0.00 | 79 | 1011.8 |
| 20260510043507 | 23 | 231 | 0.0 | 3.2 | 0.00 | 0.00 | 0.00 | 80 | 1011.9 |
| 20260510043019 | 23 | 189 | 0.0 | 0.0 | 0.00 | 0.00 | 0.00 | 81 | 1011.9 |
| 20260510042507 | 23 | 189 | 0.0 | 0.0 | 0.00 | 0.00 | 0.00 | 81 | 1011.8 |
| 20260510042014 | 23 | 189 | 0.0 | 1.6 | 0.00 | 0.00 | 0.00 | 81 | 1011.8 |
| 20260510041522 | 23 | 189 | 0.0 | 1.6 | 0.00 | 0.00 | 0.00 | 81 | 1011.7 |
| 20260510041007 | 23 | 202 | 0.0 | 0.0 | 0.00 | 0.00 | 0.00 | 81 | 1011.7 |
| 20260510040502 | 23 | 202 | 0.0 | 0.0 | 0.00 | 0.00 | 0.00 | 80 | 1011.6 |
| 20260510040010 | 24 | 202 | 0.0 | 0.0 | 0.00 | 0.00 | 0.00 | 80 | 1011.6 |
| 20260510035503 | 24 | 202 | 0.0 | 0.0 | 0.00 | 0.00 | 0.00 | 79 | 1011.6 |
| 20260510035004 | 24 | 202 | 0.0 | 3.2 | 0.00 | 0.00 | 0.00 | 79 | 1011.6 |
| 20260510034513 | 24 | 202 | 0.0 | 3.2 | 0.00 | 0.00 | 0.00 | 79 | 1011.6 |
| 20260510034005 | 24 | 189 | 0.0 | 3.2 | 0.00 | 0.00 | 0.00 | 79 | 1011.5 |
| 20260510033507 | 25 | 187 | 0.0 | 3.2 | 0.00 | 0.00 | 0.00 | 79 | 1011.5 |
| 20260510033019 | 25 | 196 | 0.0 | 3.2 | 0.00 | 0.00 | 0.00 | 79 | 1011.5 |
| 20260510032504 | 25 | 199 | 0.0 | 3.2 | 0.00 | 0.00 | 0.00 | 79 | 1011.4 |
| 20260510032010 | 25 | 194 | 0.0 | 1.6 | 0.00 | 0.00 | 0.00 | 78 | 1011.4 |
| 20260510031522 | 25 | 194 | 0.0 | 3.2 | 0.00 | 0.00 | 0.00 | 78 | 1011.4 |
| 20260510031009 | 25 | 180 | 0.0 | 3.2 | 0.00 | 0.00 | 0.00 | 77 | 1011.4 |
| 20260510030510 | 25 | 171 | 0.0 | 3.2 | 0.00 | 0.00 | 0.00 | 77 | 1011.3 |
| 20260510030002 | 25 | 218 | 0.0 | 4.8 | 0.00 | 0.00 | 0.00 | 76 | 1011.2 |
| 20260510025502 | 26 | 169 | 0.0 | 4.8 | 0.00 | 0.00 | 0.00 | 76 | 1011.2 |
| 20260510025003 | 26 | 206 | 0.0 | 3.2 | 0.00 | 0.00 | 0.00 | 75 | 1011.2 |
| 20260510024506 | 26 | 194 | 0.0 | 3.2 | 0.00 | 0.00 | 0.00 | 75 | 1011.0 |
| 20260510024003 | 26 | 198 | 0.0 | 4.8 | 0.00 | 0.00 | 0.00 | 74 | 1011.0 |
| 20260510023503 | 26 | 234 | 0.0 | 4.8 | 0.00 | 0.00 | 0.00 | 74 | 1010.9 |
| 20260510023006 | 26 | 155 | 0.0 | 4.8 | 0.00 | 0.00 | 0.00 | 73 | 1010.8 |
| 20260510022502 | 26 | 183 | 0.0 | 4.8 | 0.00 | 0.00 | 0.00 | 73 | 1010.7 |
| 20260510022003 | 26 | 195 | 0.0 | 8.0 | 0.00 | 0.00 | 0.00 | 72 | 1010.6 |
| 20260510021503 | 26 | 196 | 1.6 | 8.0 | 0.00 | 0.00 | 0.00 | 71 | 1010.6 |
| 20260510021002 | 26 | 197 | 0.0 | 4.8 | 0.00 | 0.00 | 0.00 | 70 | 1010.4 |
| 20260510020503 | 26 | 209 | 0.0 | 3.2 | 0.00 | 0.00 | 0.00 | 70 | 1010.3 |
| 20260510020003 | 26 | 194 | 0.0 | 3.2 | 0.00 | 0.00 | 0.00 | 70 | 1010.2 |
| 20260510015503 | 26 | 231 | 0.0 | 3.2 | 0.00 | 0.00 | 0.00 | 69 | 1010.1 |
| 20260510015002 | 26 | 222 | 0.0 | 3.2 | 0.00 | 0.00 | 0.00 | 69 | 1010.1 |
| 20260510014503 | 26 | 208 | 0.0 | 3.2 | 0.00 | 0.00 | 0.00 | 69 | 1010.0 |
| 20260510014005 | 26 | 209 | 0.0 | 1.6 | 0.00 | 0.00 | 0.00 | 68 | 1010.0 |
| 20260510013502 | 27 | 209 | 0.0 | 0.0 | 0.00 | 0.00 | 0.00 | 66 | 1010.0 |
| 20260510013004 | 27 | 209 | 0.0 | 3.2 | 0.00 | 0.00 | 0.00 | 65 | 1010.0 |
| 20260510012502 | 27 | 209 | 0.0 | 3.2 | 0.00 | 0.00 | 0.00 | 64 | 1010.0 |
| 20260510012002 | 27 | 194 | 0.0 | 6.4 | 0.00 | 0.00 | 0.00 | 63 | 1010.0 |
| 20260510011504 | 28 | 196 | 0.0 | 6.4 | 0.00 | 0.00 | 0.00 | 62 | 1009.9 |
| 20260510011002 | 28 | 223 | 0.0 | 6.4 | 0.00 | 0.00 | 0.00 | 61 | 1010.0 |
| 20260510010502 | 28 | 205 | 0.0 | 8.0 | 0.00 | 0.00 | 0.00 | 60 | 1010.0 |
| 20260510010004 | 28 | 173 | 3.2 | 8.0 | 0.00 | 0.00 | 0.00 | 59 | 1009.9 |
| 20260510005502 | 28 | 209 | 1.6 | 9.7 | 0.00 | 0.00 | 0.00 | 58 | 1009.9 |
| 20260510005002 | 28 | 226 | 1.6 | 9.7 | 0.00 | 0.00 | 0.00 | 58 | 1009.8 |
| 20260510004504 | 28 | 207 | 1.6 | 9.7 | 0.00 | 0.00 | 0.00 | 57 | 1009.8 |
| 20260510004001 | 28 | 138 | 0.0 | 11.3 | 0.00 | 0.00 | 0.00 | 56 | 1009.8 |
| 20260510003502 | 28 | 208 | 4.8 | 11.3 | 0.00 | 0.00 | 0.00 | 55 | 1009.8 |
| 20260510003003 | 28 | 198 | 0.0 | 11.3 | 0.00 | 0.00 | 0.00 | 57 | 1009.7 |
| 20260510002502 | 29 | 114 | 3.2 | 11.3 | 0.00 | 0.00 | 0.00 | 57 | 1009.7 |
| 20260510002002 | 29 | 207 | 0.0 | 8.0 | 0.00 | 0.00 | 0.00 | 58 | 1009.7 |
| 20260510001506 | 29 | 196 | 1.6 | 9.7 | 0.00 | 0.00 | 0.00 | 57 | 1009.6 |
| 20260510001003 | 29 | 201 | 3.2 | 9.7 | 0.00 | 0.00 | 0.00 | 57 | 1009.6 |
| 20260510000503 | 29 | 165 | 1.6 | 4.8 | 0.00 | 0.00 | 0.00 | 56 | 1009.6 |
| 20260510000004 | 29 | 219 | 1.6 | 11.3 | 0.00 | 0.00 | 0.00 | 56 | 1009.5 |
| 20260509235503 | 29 | 194 | 3.2 | 11.3 | 0.00 | 0.00 | 0.00 | 57 | 1009.4 |
| 20260509235003 | 29 | 189 | 1.6 | 8.0 | 0.00 | 0.00 | 0.00 | 58 | 1009.4 |
| 20260509234504 | 29 | 209 | 1.6 | 6.4 | 0.00 | 0.00 | 0.00 | 57 | 1009.4 |
| 20260509234004 | 29 | 84 | 0.0 | 8.0 | 0.00 | 0.00 | 0.00 | 58 | 1009.3 |
| 20260509233504 | 30 | 142 | 1.6 | 6.4 | 0.00 | 0.00 | 0.00 | 57 | 1009.2 |
| 20260509233003 | 29 | 281 | 0.0 | 8.0 | 0.00 | 0.00 | 0.00 | 58 | 1009.2 |
| 20260509232503 | 30 | 147 | 1.6 | 8.0 | 0.00 | 0.00 | 0.00 | 58 | 1009.2 |
| 20260509232003 | 30 | 167 | 1.6 | 6.4 | 0.00 | 0.00 | 0.00 | 58 | 1009.2 |
| 20260509231504 | 30 | 127 | 1.6 | 6.4 | 0.00 | 0.00 | 0.00 | 57 | 1009.2 |
| 20260509231003 | 30 | 184 | 1.6 | 6.4 | 0.00 | 0.00 | 0.00 | 56 | 1009.2 |
| 20260509230504 | 30 | 195 | 1.6 | 4.8 | 0.00 | 0.00 | 0.00 | 56 | 1009.2 |
| 20260509230004 | 30 | 181 | 0.0 | 9.7 | 0.00 | 0.00 | 0.00 | 55 | 1009.2 |
| 20260509225503 | 30 | 242 | 1.6 | 9.7 | 0.00 | 0.00 | 0.00 | 56 | 1009.3 |
| 20260509225003 | 30 | 195 | 0.0 | 8.0 | 0.00 | 0.00 | 0.00 | 55 | 1009.2 |
| 20260509224504 | 30 | 167 | 0.0 | 9.7 | 0.00 | 0.00 | 0.00 | 53 | 1009.3 |
| 20260509224004 | 30 | 92 | 1.6 | 9.7 | 0.00 | 0.00 | 0.00 | 53 | 1009.3 |
| 20260509223504 | 30 | 166 | 1.6 | 8.0 | 0.00 | 0.00 | 0.00 | 53 | 1009.3 |
| 20260509223006 | 30 | 183 | 0.0 | 6.4 | 0.00 | 0.00 | 0.00 | 52 | 1009.3 |
| 20260509222503 | 30 | 168 | 1.6 | 6.4 | 0.00 | 0.00 | 0.00 | 52 | 1009.3 |
| 20260509222002 | 30 | 201 | 0.0 | 11.3 | 0.00 | 0.00 | 0.00 | 52 | 1009.2 |
| 20260509221513 | 30 | 207 | 1.6 | 12.9 | 0.00 | 0.00 | 0.00 | 51 | 1009.2 |
| 20260509221007 | 30 | 137 | 1.6 | 12.9 | 0.00 | 0.00 | 0.00 | 51 | 1009.3 |
| 20260509220502 | 30 | 165 | 1.6 | 6.4 | 0.00 | 0.00 | 0.00 | 51 | 1009.3 |
| 20260509220005 | 30 | 170 | 1.6 | 8.0 | 0.00 | 0.00 | 0.00 | 50 | 1009.3 |
| 20260509215502 | 30 | 210 | 1.6 | 11.3 | 0.00 | 0.00 | 0.00 | 47 | 1009.3 |
| 20260509215002 | 30 | 161 | 0.0 | 11.3 | 0.00 | 0.00 | 0.00 | 47 | 1009.3 |
| 20260509214505 | 30 | 105 | 3.2 | 11.3 | 0.00 | 0.00 | 0.00 | 43 | 1009.4 |
| 20260509214003 | 30 | 225 | 1.6 | 9.7 | 0.00 | 0.00 | 0.00 | 46 | 1009.5 |
| 20260509213502 | 30 | 193 | 3.2 | 11.3 | 0.00 | 0.00 | 0.00 | 44 | 1009.5 |
| 20260509213006 | 30 | 204 | 0.0 | 11.3 | 0.00 | 0.00 | 0.00 | 46 | 1009.5 |
| 20260509212503 | 31 | 227 | 3.2 | 9.7 | 0.00 | 0.00 | 0.00 | 48 | 1009.6 |
| 20260509212002 | 31 | 206 | 1.6 | 6.4 | 0.00 | 0.00 | 0.00 | 44 | 1009.6 |
| 20260509211505 | 31 | 117 | 0.0 | 4.8 | 0.00 | 0.00 | 0.00 | 41 | 1009.6 |
| 20260509211004 | 31 | 157 | 0.0 | 4.8 | 0.00 | 0.00 | 0.00 | 38 | 1009.7 |
| 20260509210503 | 31 | 114 | 1.6 | 4.8 | 0.00 | 0.00 | 0.00 | 39 | 1009.8 |
| 20260509210004 | 31 | 173 | 1.6 | 6.4 | 0.00 | 0.00 | 0.00 | 39 | 1009.9 |
| 20260509205504 | 30 | 148 | 1.6 | 8.0 | 0.00 | 0.00 | 0.00 | 39 | 1010.0 |
| 20260509205002 | 30 | 150 | 1.6 | 6.4 | 0.00 | 0.00 | 0.00 | 39 | 1010.0 |
| 20260509204504 | 30 | 117 | 1.6 | 4.8 | 0.00 | 0.00 | 0.00 | 44 | 1010.0 |
| 20260509204004 | 30 | 173 | 0.0 | 6.4 | 0.00 | 0.00 | 0.00 | 42 | 1010.1 |
| 20260509203504 | 30 | 80 | 0.0 | 6.4 | 0.00 | 0.00 | 0.00 | 43 | 1010.2 |
| 20260509203004 | 29 | 221 | 0.0 | 4.8 | 0.00 | 0.00 | 0.00 | 41 | 1010.2 |
| 20260509202503 | 28 | 159 | 0.0 | 9.7 | 0.00 | 0.00 | 0.00 | 45 | 1010.3 |
| 20260509202003 | 28 | 117 | 4.8 | 12.9 | 0.00 | 0.00 | 0.00 | 46 | 1010.3 |
| 20260509201503 | 28 | 34 | 3.2 | 14.5 | 0.00 | 0.00 | 0.00 | 47 | 1010.6 |
| 20260509201001 | 28 | 118 | 3.2 | 19.3 | 0.00 | 0.00 | 0.00 | 46 | 1010.9 |
| 20260509200502 | 28 | 161 | 4.8 | 19.3 | 0.00 | 0.00 | 0.00 | 48 | 1011.1 |
| 20260509200003 | 27 | 174 | 4.8 | 16.1 | 0.00 | 0.00 | 0.00 | 49 | 1011.2 |
| 20260509195505 | 27 | 208 | 4.8 | 16.1 | 0.00 | 0.00 | 0.00 | 47 | 1011.4 |
| 20260509195002 | 27 | 193 | 4.8 | 17.7 | 0.00 | 0.00 | 0.00 | 44 | 1011.5 |
| 20260509194504 | 27 | 212 | 4.8 | 17.7 | 0.00 | 0.00 | 0.00 | 46 | 1011.4 |
| 20260509194001 | 27 | 205 | 1.6 | 17.7 | 0.00 | 0.00 | 0.00 | 50 | 1011.3 |
| 20260509193502 | 27 | 200 | 8.0 | 17.7 | 0.00 | 0.00 | 0.00 | 49 | 1011.2 |
| 20260509193003 | 29 | 155 | 4.8 | 14.5 | 0.00 | 0.00 | 0.00 | 55 | 1011.3 |
| 20260509192502 | 30 | 102 | 3.2 | 11.3 | 0.00 | 0.00 | 0.00 | 61 | 1011.1 |
| 20260509192005 | 30 | 95 | 1.6 | 12.9 | 0.00 | 0.00 | 0.00 | 61 | 1010.8 |
| 20260509191504 | 30 | 45 | 3.2 | 12.9 | 0.00 | 0.00 | 0.00 | 64 | 1010.8 |
| 20260509191003 | 30 | 28 | 4.8 | 16.1 | 0.00 | 0.00 | 0.00 | 62 | 1010.8 |
| 20260509190502 | 30 | 323 | 4.8 | 16.1 | 0.00 | 0.00 | 0.00 | 61 | 1010.9 |
| 20260509190008 | 30 | 36 | 6.4 | 14.5 | 0.00 | 0.00 | 0.00 | 60 | 1010.8 |
| 20260509185503 | 30 | 53 | 0.0 | 9.7 | 0.00 | 0.00 | 0.00 | 61 | 1010.8 |
| 20260509185003 | 30 | 37 | 1.6 | 11.3 | 0.00 | 0.00 | 0.00 | 62 | 1010.8 |
| 20260509184507 | 30 | 327 | 4.8 | 11.3 | 0.00 | 0.00 | 0.00 | 61 | 1011.0 |
| 20260509184002 | 30 | 53 | 1.6 | 9.7 | 0.00 | 0.00 | 0.00 | 62 | 1011.1 |
| 20260509183502 | 30 | 159 | 1.6 | 9.7 | 0.00 | 0.00 | 0.00 | 64 | 1011.2 |
| 20260509183004 | 30 | 46 | 0.0 | 9.7 | 0.00 | 0.00 | 0.00 | 63 | 1011.3 |
| 20260509182504 | 30 | 13 | 1.6 | 8.0 | 0.00 | 0.00 | 0.00 | 65 | 1011.4 |
| 20260509182002 | 30 | 310 | 0.0 | 9.7 | 0.00 | 0.00 | 0.00 | 64 | 1011.4 |
| 20260509181504 | 31 | 53 | 3.2 | 9.7 | 0.00 | 0.00 | 0.00 | 61 | 1011.5 |
| 20260509181002 | 31 | 19 | 0.0 | 3.2 | 0.00 | 0.00 | 0.00 | 63 | 1011.6 |
| 20260509180501 | 30 | 38 | 1.6 | 3.2 | 0.00 | 0.00 | 0.00 | 64 | 1011.6 |
| 20260509180010 | 30 | 108 | 0.0 | 4.8 | 0.00 | 0.00 | 0.00 | 66 | 1011.5 |
| 20260509175507 | 30 | 98 | 0.0 | 3.2 | 0.00 | 0.00 | 0.00 | 66 | 1011.7 |
| 20260509175005 | 29 | 336 | 0.0 | 3.2 | 0.00 | 0.00 | 0.00 | 69 | 1011.8 |
| 20260509174512 | 29 | 271 | 0.0 | 4.8 | 0.00 | 0.00 | 0.00 | 68 | 1011.8 |
| 20260509174002 | 29 | 42 | 0.0 | 4.8 | 0.00 | 0.00 | 0.00 | 68 | 1011.7 |
| 20260509173504 | 30 | 5 | 0.0 | 4.8 | 0.00 | 0.00 | 0.00 | 66 | 1011.7 |
| 20260509173007 | 30 | 352 | 0.0 | 4.8 | 0.00 | 0.00 | 0.00 | 68 | 1011.9 |
| 20260509172503 | 29 | 249 | 1.6 | 6.4 | 0.00 | 0.00 | 0.00 | 69 | 1012.0 |
| 20260509172004 | 29 | 352 | 0.0 | 6.4 | 0.00 | 0.00 | 0.00 | 69 | 1012.1 |
| 20260509171503 | 30 | 344 | 1.6 | 6.4 | 0.00 | 0.00 | 0.00 | 67 | 1012.2 |
| 20260509171003 | 30 | 24 | 1.6 | 8.0 | 0.00 | 0.00 | 0.00 | 70 | 1012.2 |
| 20260509170504 | 29 | 346 | 0.0 | 8.0 | 0.00 | 0.00 | 0.00 | 71 | 1012.3 |
| 20260509170013 | 28 | 14 | 3.2 | 8.0 | 0.00 | 0.00 | 0.00 | 71 | 1012.4 |
| 20260509165502 | 28 | 329 | 0.0 | 3.2 | 0.00 | 0.00 | 0.00 | 75 | 1012.3 |
| 20260509165004 | 27 | 128 | 0.0 | 4.8 | 0.00 | 0.00 | 0.00 | 73 | 1012.2 |
| 20260509164512 | 27 | 127 | 0.0 | 4.8 | 0.00 | 0.00 | 0.00 | 74 | 1012.2 |
| 20260509164005 | 27 | 18 | 0.0 | 4.8 | 0.00 | 0.00 | 0.00 | 74 | 1012.3 |
| 20260509163506 | 28 | 9 | 0.0 | 3.2 | 0.00 | 0.00 | 0.00 | 73 | 1012.3 |
| 20260509163013 | 28 | 5 | 0.0 | 3.2 | 0.00 | 0.00 | 0.00 | 72 | 1012.4 |
| 20260509162503 | 28 | 348 | 0.0 | 3.2 | 0.00 | 0.00 | 0.00 | 75 | 1012.4 |
| 20260509162005 | 27 | 32 | 0.0 | 3.2 | 0.00 | 0.00 | 0.00 | 75 | 1012.2 |
| 20260509161504 | 27 | 277 | 1.6 | 3.2 | 0.00 | 0.00 | 0.00 | 76 | 1012.2 |
| 20260509161003 | 27 | 292 | 0.0 | 3.2 | 0.00 | 0.00 | 0.00 | 76 | 1012.0 |
| 20260509160504 | 27 | 281 | 1.6 | 4.8 | 0.00 | 0.00 | 0.00 | 77 | 1012.2 |
| 20260509160004 | 27 | 253 | 0.0 | 4.8 | 0.00 | 0.00 | 0.00 | 79 | 1012.2 |
| 20260509155503 | 26 | 207 | 1.6 | 4.8 | 0.00 | 0.00 | 0.00 | 80 | 1012.2 |
| 20260509155007 | 26 | 284 | 0.0 | 3.2 | 0.00 | 0.00 | 0.00 | 81 | 1012.2 |
| 20260509154507 | 25 | 248 | 1.6 | 3.2 | 0.00 | 0.00 | 0.00 | 82 | 1012.3 |
| 20260509154003 | 25 | 261 | 0.0 | 3.2 | 0.00 | 0.00 | 0.00 | 82 | 1012.3 |
| 20260509153507 | 25 | 223 | 1.6 | 3.2 | 0.00 | 0.00 | 0.00 | 83 | 1012.2 |
| 20260509153015 | 25 | 248 | 1.6 | 4.8 | 0.00 | 0.00 | 0.00 | 83 | 1012.2 |
| 20260509152506 | 25 | 245 | 1.6 | 6.4 | 0.00 | 0.00 | 0.00 | 84 | 1012.1 |
| 20260509152006 | 25 | 279 | 1.6 | 6.4 | 0.00 | 0.00 | 0.00 | 85 | 1012.1 |
| 20260509151503 | 25 | 132 | 1.6 | 4.8 | 0.00 | 0.00 | 0.00 | 85 | 1012.0 |
| 20260509151003 | 24 | 189 | 0.0 | 3.2 | 0.00 | 0.00 | 0.00 | 86 | 1011.9 |
| 20260509150503 | 24 | 222 | 0.0 | 3.2 | 0.00 | 0.00 | 0.00 | 86 | 1011.9 |
| 20260509150004 | 24 | 288 | 0.0 | 3.2 | 0.00 | 0.00 | 0.00 | 85 | 1011.9 |
| 20260509145504 | 25 | 145 | 1.6 | 3.2 | 0.00 | 0.00 | 0.00 | 83 | 1011.9 |
| 20260509145003 | 25 | 240 | 1.6 | 8.0 | 0.00 | 0.00 | 0.00 | 83 | 1011.9 |
| 20260509144508 | 25 | 109 | 1.6 | 8.0 | 0.00 | 0.00 | 0.00 | 83 | 1011.9 |
| 20260509144004 | 25 | 120 | 1.6 | 8.0 | 0.00 | 0.00 | 0.00 | 85 | 1011.9 |
| 20260509143504 | 25 | 197 | 3.2 | 8.0 | 0.00 | 0.00 | 0.00 | 85 | 1011.7 |
| 20260509143014 | 25 | 278 | 0.0 | 12.9 | 0.00 | 0.00 | 0.00 | 84 | 1011.7 |
| 20260509142503 | 25 | 198 | 3.2 | 12.9 | 0.00 | 0.00 | 0.00 | 85 | 1011.6 |
| 20260509142003 | 25 | 192 | 1.6 | 6.4 | 0.00 | 0.00 | 0.00 | 86 | 1011.5 |
| 20260509141527 | 25 | 221 | 0.0 | 4.8 | 0.00 | 0.00 | 0.00 | 87 | 1011.3 |
| 20260509141007 | 25 | 196 | 0.0 | 3.2 | 0.00 | 0.00 | 0.00 | 88 | 1011.2 |
| 20260509140506 | 24 | 231 | 0.0 | 3.2 | 0.00 | 0.00 | 0.00 | 89 | 1011.1 |
| 20260509140005 | 23 | 231 | 0.0 | 3.2 | 0.00 | 0.00 | 0.00 | 91 | 1011.1 |
| 20260509135506 | 23 | 231 | 0.0 | 3.2 | 0.00 | 0.00 | 0.00 | 93 | 1011.0 |
| 20260509135002 | 23 | 261 | 0.0 | 3.2 | 0.00 | 0.00 | 0.00 | 93 | 1011.1 |
| 20260509134508 | 23 | 216 | 0.0 | 3.2 | 0.00 | 0.00 | 0.00 | 94 | 1011.3 |
| 20260509134005 | 22 | 214 | 0.0 | 3.2 | 0.00 | 0.00 | 0.00 | 95 | 1011.4 |
| 20260509133502 | 22 | 226 | 0.0 | 3.2 | 0.00 | 0.00 | 0.00 | 95 | 1011.3 |
| 20260509133012 | 22 | 209 | 0.0 | 3.2 | 0.00 | 0.00 | 0.00 | 95 | 1011.2 |
| 20260509132504 | 22 | 209 | 1.6 | 3.2 | 0.00 | 0.00 | 0.00 | 96 | 1011.2 |
| 20260509132006 | 22 | 211 | 1.6 | 3.2 | 0.00 | 0.00 | 0.00 | 96 | 1011.5 |
| 20260509131516 | 22 | 184 | 0.0 | 3.2 | 0.00 | 0.00 | 0.00 | 96 | 1011.5 |
| 20260509131007 | 22 | 184 | 0.0 | 3.2 | 0.00 | 0.00 | 0.00 | 96 | 1011.8 |
| 20260509130507 | 22 | 184 | 0.0 | 3.2 | 0.00 | 0.00 | 0.00 | 96 | 1011.8 |
| 20260509130039 | 21 | 184 | 0.0 | 3.2 | 0.00 | 0.00 | 0.00 | 96 | 1011.8 |
| 20260509125507 | 21 | 30 | 0.0 | 1.6 | 0.00 | 0.00 | 0.00 | 96 | 1011.9 |
| 20260509125008 | 21 | 30 | 0.0 | 0.0 | 0.00 | 0.00 | 0.00 | 96 | 1011.9 |
| 20260509124504 | 21 | 30 | 0.0 | 0.0 | 0.00 | 0.00 | 0.00 | 96 | 1011.9 |
| 20260509124003 | 21 | 30 | 0.0 | 0.0 | 0.00 | 0.00 | 0.00 | 96 | 1011.8 |
| 20260509123502 | 21 | 30 | 0.0 | 0.0 | 0.00 | 0.00 | 0.00 | 96 | 1011.8 |
| 20260509123018 | 21 | 30 | 0.0 | 0.0 | 0.00 | 0.00 | 0.00 | 96 | 1011.5 |
| 20260509122503 | 21 | 30 | 0.0 | 1.6 | 0.00 | 0.00 | 0.00 | 96 | 1011.5 |
| 20260509122007 | 21 | 30 | 0.0 | 3.2 | 0.00 | 0.00 | 0.00 | 96 | 1011.4 |
| 20260509121520 | 21 | 30 | 0.0 | 3.2 | 0.00 | 0.00 | 0.00 | 96 | 1011.4 |
| 20260509121007 | 21 | 30 | 0.0 | 3.2 | 0.00 | 0.00 | 0.00 | 96 | 1011.4 |
| 20260509120510 | 21 | 34 | 0.0 | 3.2 | 0.00 | 0.00 | 0.00 | 95 | 1011.5 |
| 20260509120020 | 21 | 34 | 0.0 | 0.0 | 0.00 | 0.00 | 0.00 | 95 | 1011.4 |
| 20260509115506 | 21 | 34 | 0.0 | 0.0 | 0.00 | 0.00 | 0.00 | 95 | 1011.3 |
| 20260509115009 | 21 | 34 | 0.0 | 3.2 | 0.00 | 0.00 | 0.00 | 95 | 1011.4 |
| 20260509114521 | 21 | 34 | 0.0 | 3.2 | 0.00 | 0.00 | 0.00 | 95 | 1011.6 |
| 20260509114007 | 21 | 34 | 0.0 | 1.6 | 0.00 | 0.00 | 0.00 | 95 | 1011.9 |
| 20260509113512 | 21 | 34 | 0.0 | 1.6 | 0.00 | 0.00 | 0.00 | 95 | 1012.3 |
| 20260509113007 | 21 | 34 | 0.0 | 3.2 | 0.00 | 0.00 | 0.00 | 95 | 1012.3 |
| 20260509112503 | 21 | 34 | 0.0 | 3.2 | 0.00 | 0.00 | 0.00 | 95 | 1012.4 |
| 20260509112006 | 21 | 47 | 0.0 | 4.8 | 0.00 | 0.00 | 0.00 | 95 | 1012.6 |
| 20260509111513 | 21 | 22 | 1.6 | 4.8 | 0.00 | 0.00 | 0.00 | 95 | 1012.6 |
| 20260509111006 | 21 | 12 | 0.0 | 3.2 | 0.00 | 0.00 | 0.00 | 95 | 1012.5 |
| 20260509110506 | 21 | 38 | 1.6 | 3.2 | 0.00 | 0.00 | 0.00 | 95 | 1012.6 |
| 20260509110022 | 21 | 19 | 0.0 | 3.2 | 0.00 | 0.00 | 0.00 | 95 | 1012.7 |
| 20260509105507 | 21 | 43 | 0.0 | 3.2 | 0.00 | 0.00 | 0.00 | 95 | 1012.7 |
| 20260509105010 | 21 | 43 | 0.0 | 3.2 | 0.00 | 0.00 | 0.00 | 95 | 1012.6 |
| 20260509104505 | 21 | 43 | 0.0 | 3.2 | 0.00 | 0.00 | 0.00 | 95 | 1012.5 |
| 20260509104002 | 21 | 360 | 0.0 | 3.2 | 0.00 | 0.00 | 0.00 | 95 | 1012.8 |
| 20260509103502 | 21 | 72 | 0.0 | 3.2 | 0.00 | 0.00 | 0.00 | 95 | 1012.8 |
| 20260509103008 | 21 | 72 | 0.0 | 3.2 | 0.00 | 0.00 | 0.00 | 95 | 1012.7 |
| 20260509102505 | 21 | 42 | 0.0 | 3.2 | 0.00 | 0.00 | 0.00 | 95 | 1012.8 |
| 20260509102004 | 21 | 42 | 0.0 | 3.2 | 0.00 | 0.00 | 0.00 | 95 | 1012.8 |
| 20260509101515 | 21 | 159 | 0.0 | 0.0 | 0.00 | 0.00 | 0.00 | 95 | 1012.6 |
| 20260509101003 | 21 | 159 | 0.0 | 0.0 | 0.00 | 0.00 | 0.00 | 95 | 1012.4 |
| 20260509100505 | 21 | 159 | 0.0 | 0.0 | 0.00 | 0.00 | 0.00 | 95 | 1012.1 |
| 20260509100019 | 21 | 159 | 0.0 | 0.0 | 0.00 | 0.00 | 0.00 | 95 | 1012.0 |
| 20260509095507 | 21 | 159 | 0.0 | 0.0 | 0.00 | 0.00 | 0.00 | 95 | 1011.8 |
| 20260509095007 | 21 | 159 | 0.0 | 0.0 | 0.00 | 0.00 | 0.00 | 95 | 1011.8 |
| 20260509094521 | 21 | 159 | 0.0 | 0.0 | 0.00 | 0.00 | 0.00 | 95 | 1011.5 |
| 20260509094009 | 21 | 159 | 0.0 | 0.0 | 0.00 | 0.00 | 0.00 | 95 | 1011.3 |
| 20260509093505 | 21 | 159 | 0.0 | 0.0 | 0.00 | 0.00 | 0.00 | 95 | 1011.3 |
| 20260509093017 | 21 | 159 | 0.0 | 0.0 | 0.00 | 0.00 | 0.00 | 95 | 1011.2 |
| 20260509092502 | 21 | 159 | 0.0 | 0.0 | 0.00 | 0.00 | 0.00 | 95 | 1011.1 |
| 20260509092003 | 21 | 159 | 0.0 | 0.0 | 0.00 | 0.00 | 0.00 | 95 | 1011.2 |
| 20260509091509 | 21 | 159 | 0.0 | 3.2 | 0.00 | 0.00 | 0.00 | 95 | 1011.1 |
| 20260509091003 | 21 | 159 | 0.0 | 3.2 | 0.00 | 0.00 | 0.00 | 95 | 1011.1 |
| 20260509090504 | 21 | 159 | 0.0 | 0.0 | 0.00 | 0.00 | 0.00 | 95 | 1011.1 |
| 20260509090013 | 21 | 159 | 0.0 | 0.0 | 0.00 | 0.00 | 0.00 | 95 | 1011.1 |
| 20260509085507 | 21 | 159 | 0.0 | 0.0 | 0.00 | 0.00 | 0.00 | 95 | 1011.2 |
| 20260509085005 | 21 | 159 | 0.0 | 0.0 | 0.00 | 0.00 | 0.00 | 95 | 1011.3 |
| 20260509084520 | 21 | 159 | 0.0 | 0.0 | 0.00 | 0.00 | 0.00 | 95 | 1011.3 |
| 20260509084008 | 21 | 159 | 0.0 | 0.0 | 0.00 | 0.00 | 0.00 | 94 | 1011.4 |
| 20260509083511 | 21 | 159 | 0.0 | 0.0 | 0.00 | 0.00 | 0.00 | 94 | 1011.5 |
| 20260509083024 | 21 | 159 | 0.0 | 0.0 | 0.00 | 0.00 | 0.00 | 94 | 1011.6 |
| 20260509082506 | 21 | 159 | 0.0 | 0.0 | 0.00 | 0.00 | 0.00 | 94 | 1011.7 |
| 20260509082010 | 21 | 159 | 0.0 | 0.0 | 0.00 | 0.00 | 0.00 | 94 | 1011.7 |
| 20260509081508 | 21 | 159 | 0.0 | 0.0 | 0.00 | 0.00 | 0.00 | 94 | 1011.7 |
| 20260509081006 | 21 | 159 | 0.0 | 0.0 | 0.00 | 0.00 | 0.00 | 94 | 1011.5 |
| 20260509080504 | 21 | 159 | 0.0 | 0.0 | 0.00 | 0.00 | 0.00 | 94 | 1011.6 |
| 20260509080009 | 21 | 159 | 0.0 | 0.0 | 0.00 | 0.00 | 0.00 | 94 | 1011.6 |
| 20260509075506 | 21 | 159 | 0.0 | 1.6 | 0.00 | 0.00 | 0.00 | 94 | 1011.8 |
| 20260509075006 | 21 | 159 | 0.0 | 3.2 | 0.00 | 0.00 | 0.00 | 94 | 1011.7 |
| 20260509074517 | 21 | 159 | 0.0 | 3.2 | 0.00 | 0.00 | 0.00 | 93 | 1011.7 |
| 20260509074008 | 21 | 144 | 0.0 | 1.6 | 0.00 | 0.00 | 0.00 | 93 | 1011.7 |
| 20260509073507 | 21 | 256 | 0.0 | 0.0 | 0.00 | 0.00 | 0.00 | 93 | 1011.8 |
| 20260509073020 | 21 | 257 | 0.0 | 0.0 | 0.00 | 0.00 | 0.00 | 93 | 1011.9 |
| 20260509072515 | 21 | 256 | 0.0 | 0.0 | 0.00 | 0.00 | 0.00 | 93 | 1012.0 |
| 20260509072010 | 22 | 256 | 0.0 | 0.0 | 0.00 | 0.00 | 0.00 | 93 | 1011.9 |
| 20260509071524 | 22 | 256 | 0.0 | 0.0 | 0.00 | 0.00 | 0.00 | 93 | 1012.1 |
| 20260509071007 | 22 | 256 | 0.0 | 0.0 | 0.00 | 0.00 | 0.00 | 93 | 1012.2 |
| 20260509070506 | 22 | 256 | 0.0 | 1.6 | 0.00 | 0.00 | 0.00 | 92 | 1012.0 |
| 20260509070009 | 22 | 257 | 0.0 | 1.6 | 0.00 | 0.00 | 0.00 | 92 | 1012.1 |
| 20260509065503 | 22 | 180 | 0.0 | 3.2 | 0.00 | 0.00 | 0.00 | 92 | 1012.0 |
| 20260509065009 | 22 | 180 | 0.0 | 3.2 | 0.00 | 0.00 | 0.00 | 92 | 1011.7 |
| 20260509064517 | 22 | 172 | 0.0 | 3.2 | 0.00 | 0.00 | 0.00 | 92 | 1011.6 |
| 20260509064007 | 22 | 205 | 0.0 | 4.8 | 0.00 | 0.00 | 0.00 | 91 | 1011.7 |
| 20260509063504 | 22 | 182 | 0.0 | 8.0 | 0.00 | 0.00 | 0.00 | 91 | 1011.7 |
| 20260509063021 | 22 | 195 | 0.0 | 6.4 | 0.00 | 0.00 | 0.00 | 91 | 1011.9 |
| 20260509062507 | 22 | 187 | 0.0 | 3.2 | 0.00 | 0.00 | 0.00 | 91 | 1011.9 |
| 20260509062008 | 22 | 173 | 0.0 | 8.0 | 0.00 | 0.00 | 0.00 | 90 | 1011.7 |
| 20260509061524 | 22 | 160 | 0.0 | 9.7 | 0.00 | 0.00 | 0.00 | 90 | 1011.5 |
| 20260509061009 | 22 | 192 | 1.6 | 9.7 | 0.00 | 0.00 | 0.00 | 90 | 1011.5 |
| 20260509060509 | 22 | 188 | 0.0 | 3.2 | 0.00 | 0.00 | 0.00 | 90 | 1011.4 |
| 20260509060024 | 22 | 202 | 0.0 | 3.2 | 0.00 | 0.00 | 0.00 | 90 | 1011.2 |
| 20260509055507 | 22 | 224 | 0.0 | 3.2 | 0.00 | 0.00 | 0.00 | 90 | 1011.4 |
| 20260509055009 | 22 | 232 | 0.0 | 6.4 | 0.00 | 0.00 | 0.00 | 90 | 1011.4 |
| 20260509054522 | 22 | 217 | 0.0 | 6.4 | 0.00 | 0.00 | 0.00 | 89 | 1011.5 |
| 20260509054007 | 22 | 117 | 0.0 | 8.0 | 0.00 | 0.00 | 0.00 | 89 | 1011.3 |
| 20260509053509 | 22 | 199 | 1.6 | 9.7 | 0.00 | 0.00 | 0.00 | 89 | 1010.9 |
| 20260509053035 | 22 | 205 | 1.6 | 8.0 | 0.00 | 0.00 | 0.00 | 89 | 1010.6 |
| 20260509052504 | 22 | 228 | 1.6 | 9.7 | 0.00 | 0.00 | 0.00 | 89 | 1010.6 |
| 20260509052002 | 22 | 192 | 1.6 | 9.7 | 0.00 | 0.00 | 0.00 | 89 | 1010.6 |
| 20260509051502 | 22 | 194 | 0.0 | 6.4 | 0.00 | 0.00 | 0.00 | 89 | 1010.6 |
| 20260509051003 | 22 | 191 | 0.0 | 4.8 | 0.00 | 0.00 | 0.00 | 89 | 1010.6 |
| 20260509050503 | 22 | 209 | 0.0 | 6.4 | 0.00 | 0.00 | 0.00 | 88 | 1010.6 |
| 20260509050027 | 22 | 202 | 1.6 | 6.4 | 0.00 | 0.00 | 0.00 | 88 | 1010.4 |
| 20260509045503 | 22 | 195 | 0.0 | 6.4 | 0.00 | 0.00 | 0.00 | 88 | 1010.5 |